Flag for U.S.A. Weather past 2 weeks in Glennallen, Alaska, U.S.A.

Now
41 °F

Clear.


Feels Like: 41 °F
Forecast: 45 / 75 °F
Wind: No wind

Location: Gulkana Airport

Current Time: Aug 3, 2015 at 3:38:42 AM

Latest Report: Aug 3, 2015 at 2:53 AM


Visibility: 10 mi

Pressure: 30.14 "Hg

Humidity: 89%

Dew point: 38 °F

Location of GlennallenLocation

Historic Weather in Glennallen — Graph

°F

Glennallen temperature yesterday

Maximum temperature yesterday: 72 °F (at 4:53 PM)
Minimum temperature yesterday: 49 °F (at 11:53 PM)
Average temperature yesterday: 61 °F

Past Weeks' High & Low Weather Summary

 TemperatureHumidityPressure
High79 °F (Jul 24, 3:53 PM)93% (Jul 29, 2:53 AM)30.17 "Hg (Jul 29, 2:53 AM)
Low38 °F (Jul 21, 4:53 AM)25% (Jul 24, 3:53 PM)29.51 "Hg (Jul 23, 4:53 PM)
Average59 °F64%29.88 "Hg
* Reported Jul 19 1:53 AM — Aug 3 1:53 AM, Glennallen, Weather by CustomWeather, © 2015

Note: Actual official high and low records may vary slightly from our data, if they occured in-between our weather recording intervals... More about our weather records

Advertising

Glennallen weather history for previous 24 hours

 ConditionsComfort  
Time TempWeatherWind HumidityBarometerVisibility
1:53 AM
Mon, Aug 3
44 °FClear.No wind82%30.14 "Hg10 mi
12:53 AM46 °FClear.No wind83%30.12 "Hg10 mi
11:53 PM
Sun, Aug 2
49 °FClear.3 mph80%30.11 "Hg10 mi
10:53 PM51 °FSunny.3 mph77%30.10 "Hg10 mi
9:53 PM59 °FSunny.No wind62%30.08 "Hg10 mi
8:53 PM69 °FSunny.3 mph41%30.07 "Hg10 mi
7:53 PM71 °FSunny.5 mph35%30.07 "Hg10 mi
6:53 PM71 °FSunny.No wind35%30.07 "Hg10 mi
5:53 PM72 °FSunny.N/A34%30.08 "Hg10 mi
4:53 PM72 °FScattered clouds.3 mph37%30.08 "Hg10 mi
3:53 PM71 °FSunny.3 mph35%30.10 "Hg10 mi
2:53 PM69 °FScattered clouds.No wind42%30.11 "Hg10 mi
1:53 PM68 °FSunny.N/A47%30.12 "Hg10 mi
12:53 PM66 °FSunny.6 mph50%30.13 "Hg10 mi
11:53 AM63 °FSunny.6 mph60%30.14 "Hg10 mi
10:53 AM62 °FSunny.7 mph62%30.14 "Hg10 mi
9:53 AM60 °FSunny.7 mph75%30.14 "Hg10 mi
8:53 AM57 °FPassing clouds.3 mph81%30.14 "Hg10 mi
7:53 AM56 °FPassing clouds.No wind84%30.13 "Hg10 mi
6:53 AM54 °FSunny.No wind90%30.13 "Hg10 mi
5:53 AM53 °FOvercast.No wind93%30.13 "Hg10 mi
4:53 AM53 °FOvercast.No wind93%30.13 "Hg10 mi
3:53 AM53 °FLight rain. Overcast.5 mph93%30.13 "Hg10 mi
Weather by CustomWeather, © 2015

See weather overviewHow to use our weather pages